CW9181 Weather Reports


time (UTC)temp
C
wind
direction
speed
KPH
gust
KPH
rain 1hr
cm
rain 24hr
cm
rain mn
cm
humidity
%
barometer
mb
20260901115024 15 164 6.4 17.7 0.00 0.00 0.00 79 1013.4
20260901114026 15 139 8.0 16.1 0.00 0.00 0.00 79 1013.3
20260901113013 15 138 8.0 14.5 0.00 0.00 0.00 79 1013.3
20260901112014 15 155 8.0 12.9 0.00 0.00 0.00 79 1013.1
20260901111014 15 120 6.4 12.9 0.00 0.00 0.00 79 1013.1
20260901110015 15 108 8.0 11.3 0.00 0.00 0.00 79 1013.2
20260901105037 15 127 8.0 14.5 0.00 0.00 0.00 78 1013.2
20260901104012 15 123 6.4 12.9 0.00 0.00 0.00 78 1013.1
20260901103013 15 139 8.0 12.9 0.00 0.00 0.00 78 1013.1
20260901102035 15 124 9.7 17.7 0.00 0.00 0.00 78 1012.9
20260901101011 15 132 11.3 19.3 0.00 0.00 0.00 79 1013.1
20260901100014 15 172 8.0 20.9 0.00 0.00 0.00 79 1013.2
20260901095014 15 139 8.0 16.1 0.00 0.00 0.00 79 1013.1
20260901094010 15 157 8.0 16.1 0.00 0.00 0.00 79 1013.2
20260901093013 15 169 11.3 14.5 0.00 0.00 0.00 79 1013.1
20260901092016 15 119 6.4 17.7 0.00 0.00 0.00 78 1013.1
20260901091033 15 103 9.7 19.3 0.00 0.00 0.00 78 1013.1
20260901090013 15 119 9.7 17.7 0.00 0.00 0.00 79 1013.3
20260901085016 15 95 12.9 19.3 0.00 0.00 0.00 79 1013.2
20260901084015 15 127 9.7 17.7 0.00 0.00 0.00 79 1013.2
20260901083019 15 155 9.7 16.1 0.00 0.00 0.00 79 1013.3
20260901082021 15 156 11.3 19.3 0.00 0.00 0.00 79 1013.2
20260901081027 15 143 9.7 17.7 0.00 0.00 0.00 79 1013.2
20260901080022 15 133 11.3 20.9 0.00 0.00 0.00 79 1013.1
20260901075022 15 113 11.3 17.7 0.00 0.00 0.00 79 1013.0
20260901074024 15 99 8.0 19.3 0.00 0.00 0.00 79 1013.1
20260901073019 15 139 12.9 22.5 0.00 0.00 0.00 79 1013.1
20260901072022 15 103 9.7 22.5 0.00 0.00 0.00 78 1013.0
20260901071023 15 124 8.0 17.7 0.00 0.00 0.00 78 1013.0
20260901070046 15 130 9.7 22.5 0.00 0.00 0.00 78 1013.0
20260901065034 15 134 9.7 17.7 0.00 0.00 0.00 78 1013.0
20260901064014 15 136 11.3 20.9 0.00 0.00 0.00 78 1013.0
20260901063017 15 141 8.0 17.7 0.00 0.00 0.00 78 1013.0
20260901062012 15 162 8.0 22.5 0.00 0.00 0.00 77 1013.0
20260901061011 15 146 9.7 17.7 0.00 0.00 0.00 77 1012.9
20260901060012 16 195 8.0 17.7 0.00 0.00 0.00 77 1012.8
20260901055048 16 145 9.7 17.7 0.00 0.00 0.00 76 1012.6
20260901054028 16 132 8.0 19.3 0.00 0.00 0.00 76 1012.7
20260901053052 16 125 8.0 14.5 0.00 0.00 0.00 75 1012.6
20260901052026 16 159 8.0 17.7 0.00 0.00 0.00 75 1012.7
20260901051024 16 158 6.4 16.1 0.00 0.00 0.00 75 1012.7
20260901050028 16 199 6.4 16.1 0.00 0.00 0.00 74 1012.7
20260901045024 17 154 8.0 19.3 0.00 0.00 0.00 74 1012.6
20260901044049 17 105 9.7 17.7 0.00 0.00 0.00 74 1012.5
20260901043028 17 151 11.3 17.7 0.00 0.00 0.00 73 1012.4
20260901042020 17 169 8.0 17.7 0.00 0.00 0.00 72 1012.4
20260901041022 17 186 8.0 19.3 0.00 0.00 0.00 72 1012.3
20260901040022 17 200 8.0 22.5 0.00 0.00 0.00 71 1012.3
20260901035012 17 182 8.0 16.1 0.00 0.00 0.00 71 1012.0
20260901034011 18 165 6.4 16.1 0.00 0.00 0.00 70 1011.8
20260901033016 18 218 6.4 16.1 0.00 0.00 0.00 69 1011.6
20260901032013 18 171 4.8 16.1 0.00 0.00 0.00 69 1011.5
20260901031012 18 239 12.9 19.3 0.00 0.00 0.00 68 1011.3
20260901030013 18 201 4.8 22.5 0.00 0.00 0.00 67 1011.1
20260901025011 19 159 8.0 20.9 0.00 0.00 0.00 66 1011.0
20260901024016 20 137 9.7 17.7 0.00 0.00 0.00 64 1011.1
20260901023018 20 191 8.0 19.3 0.00 0.00 0.00 63 1010.9
20260901022021 20 195 4.8 20.9 0.00 0.00 0.00 60 1010.9
20260901021038 21 216 8.0 17.7 0.00 0.00 0.00 59 1010.8
20260901020021 21 301 8.0 19.3 0.00 0.00 0.00 57 1010.7
20260901015023 22 191 8.0 24.1 0.00 0.00 0.00 55 1010.6
20260901014040 22 189 6.4 17.7 0.00 0.00 0.00 54 1010.3
20260901013017 23 166 6.4 17.7 0.00 0.00 0.00 53 1010.4
20260901012012 23 231 8.0 24.1 0.00 0.00 0.00 50 1010.4
20260901011012 24 203 9.7 19.3 0.00 0.00 0.00 49 1010.4
20260901010204 24 212 11.3 20.9 0.00 0.00 0.00 48 1010.5
20260901005026 24 197 9.7 22.5 0.00 0.00 0.00 48 1010.5
20260901004028 25 213 8.0 24.1 0.00 0.00 0.00 47 1010.7
20260901003010 25 181 4.8 19.3 0.00 0.00 0.00 47 1010.8
20260901002031 25 184 6.4 16.1 0.00 0.00 0.00 47 1010.5
20260901001028 25 210 6.4 16.1 0.00 0.00 0.00 48 1010.7
20260901000010 25 179 8.0 19.3 0.00 0.00 0.00 47 1010.8
20260831235012 25 252 11.3 19.3 0.00 0.00 0.00 47 1010.6
20260831234029 26 227 6.4 19.3 0.00 0.00 0.00 47 1010.7
20260831233030 25 298 8.0 19.3 0.00 0.00 0.00 48 1010.9
20260831232010 25 250 9.7 16.1 0.00 0.00 0.00 48 1011.0
20260831231025 26 178 6.4 17.7 0.00 0.00 0.00 48 1011.0
20260831230023 26 172 3.2 20.9 0.00 0.00 0.00 47 1011.1
20260831225024 25 245 6.4 16.1 0.00 0.00 0.00 48 1011.2
20260831224019 25 195 8.0 20.9 0.00 0.00 0.00 49 1011.3
20260831223020 25 245 8.0 17.7 0.00 0.00 0.00 48 1011.4
20260831222023 25 159 8.0 16.1 0.00 0.00 0.00 49 1011.6
20260831221020 25 231 9.7 16.1 0.00 0.00 0.00 48 1011.6
20260831220020 25 176 8.0 19.3 0.00 0.00 0.00 48 1011.9
20260831215022 25 241 8.0 19.3 0.00 0.00 0.00 48 1011.8
20260831214033 25 265 4.8 16.1 0.00 0.00 0.00 49 1011.8
20260831213015 24 260 8.0 16.1 0.00 0.00 0.00 49 1011.8
20260831212015 24 275 9.7 14.5 0.00 0.00 0.00 50 1012.0
20260831211010 24 203 6.4 16.1 0.00 0.00 0.00 51 1012.1
20260831210012 23 194 8.0 16.1 0.00 0.00 0.00 51 1012.1
20260831205011 23 255 8.0 16.1 0.00 0.00 0.00 51 1012.2
20260831204025 23 169 4.8 14.5 0.00 0.00 0.00 52 1012.3
20260831203027 23 234 3.2 12.9 0.00 0.00 0.00 52 1012.3
20260831202027 23 203 6.4 19.3 0.00 0.00 0.00 53 1012.5
20260831201026 23 260 11.3 19.3 0.00 0.00 0.00 53 1012.3
20260831200028 23 205 4.8 17.7 0.00 0.00 0.00 53 1012.6
20260831195048 22 218 6.4 16.1 0.00 0.00 0.00 54 1012.8
20260831194024 22 235 9.7 17.7 0.00 0.00 0.00 56 1012.9
20260831193022 22 192 11.3 22.5 0.00 0.00 0.00 56 1013.0
20260831192023 22 292 9.7 27.4 0.00 0.00 0.00 55 1012.9
20260831191039 22 205 6.4 16.1 0.00 0.00 0.00 58 1013.0
20260831190015 22 286 4.8 17.7 0.00 0.00 0.00 57 1012.9
20260831185017 22 270 6.4 17.7 0.00 0.00 0.00 56 1012.8
20260831184017 22 174 9.7 17.7 0.00 0.00 0.00 56 1012.8
20260831183018 22 250 4.8 17.7 0.00 0.00 0.00 57 1012.8
20260831182019 22 191 8.0 19.3 0.00 0.00 0.00 58 1013.1
20260831181016 21 168 9.7 20.9 0.00 0.00 0.00 58 1013.0
20260831180018 21 225 8.0 19.3 0.00 0.00 0.00 59 1012.9
20260831175022 21 207 9.7 20.9 0.00 0.00 0.00 60 1012.9
20260831174020 21 251 6.4 17.7 0.00 0.00 0.00 61 1012.8
20260831173016 21 181 8.0 16.1 0.00 0.00 0.00 61 1012.8
20260831172016 20 109 8.0 14.5 0.00 0.00 0.00 61 1012.7
20260831171021 20 189 6.4 16.1 0.00 0.00 0.00 62 1012.7
20260831170019 20 172 6.4 12.9 0.00 0.00 0.00 62 1012.6
20260831165041 20 211 3.2 12.9 0.00 0.00 0.00 64 1012.6
20260831164021 19 189 4.8 16.1 0.00 0.00 0.00 65 1012.7
20260831163038 19 170 11.3 16.1 0.00 0.00 0.00 65 1012.7
20260831162021 18 154 8.0 14.5 0.00 0.00 0.00 66 1012.6
20260831161017 18 132 4.8 12.9 0.00 0.00 0.00 67 1012.6
20260831160017 18 119 8.0 11.3 0.00 0.00 0.00 68 1012.8
20260831155038 17 97 6.4 12.9 0.00 0.00 0.00 70 1012.7
20260831154014 17 195 6.4 16.1 0.00 0.00 0.00 71 1012.7
20260831153018 17 187 6.4 12.9 0.00 0.00 0.00 73 1012.7
20260831152024 16 122 8.0 14.5 0.00 0.00 0.00 75 1012.6
20260831151023 16 165 8.0 16.1 0.00 0.00 0.00 78 1012.6
20260831145014 15 147 1.6 14.5 0.00 0.00 0.00 81 1012.4
20260831144035 15 135 4.8 11.3 0.00 0.00 0.00 82 1012.3
20260831143016 14 196 4.8 11.3 0.00 0.00 0.00 82 1012.2
20260831142019 14 154 6.4 12.9 0.00 0.00 0.00 83 1012.1
20260831141019 14 147 4.8 11.3 0.00 0.00 0.00 83 1012.0
20260831140039 14 178 3.2 9.7 0.00 0.00 0.00 82 1011.6
20260831135018 14 156 3.2 16.1 0.00 0.00 0.00 82 1011.7
20260831134014 14 166 8.0 12.9 0.00 0.00 0.00 82 1011.5
20260831133016 14 151 6.4 16.1 0.00 0.00 0.00 81 1011.4
20260831132020 14 193 3.2 11.3 0.00 0.00 0.00 81 1011.3
20260831131017 14 172 4.8 11.3 0.00 0.00 0.00 81 1011.3
20260831130011 15 197 4.8 11.3 0.00 0.00 0.00 80 1011.0
20260831125018 15 158 4.8 9.7 0.00 0.00 0.00 79 1010.9
20260831124018 15 165 4.8 11.3 0.00 0.00 0.00 78 1010.9
20260831123017 15 170 4.8 12.9 0.00 0.00 0.00 77 1010.9
20260831122013 15 156 6.4 11.3 0.00 0.00 0.00 76 1010.8
20260831121017 15 162 8.0 16.1 0.00 0.00 0.00 75 1010.7
20260831120010 15 170 6.4 14.5 0.00 0.00 0.00 75 1010.7